Time,TemperatureF,DewpointF,PressureIn,WindDirection,WindDirectionDegrees,WindSpeedMPH,WindSpeedGustMPH,Humidity,HourlyPrecipIn,Conditions,Clouds,dailyrainin,SoftwareType,DateUTC
2013-07-16 00:00:00,66.0,37.4,29.95,West,270,0.0,0.0,35,0.00,,,0.00,WUHU21623XXSP,2013-07-16 07:00:00,
2013-07-16 00:05:00,65.5,36.9,29.95,West,270,0.0,0.0,35,0.00,,,0.00,WUHU21623XXSP,2013-07-16 07:05:00,
2013-07-16 00:10:00,65.3,36.8,29.96,West,270,0.0,0.0,35,0.00,,,0.00,WUHU21623XXSP,2013-07-16 07:10:00,
2013-07-16 00:15:00,64.9,36.4,29.96,West,270,0.0,0.0,35,0.00,,,0.00,WUHU21623XXSP,2013-07-16 07:15:00,
2013-07-16 00:21:00,64.8,37.0,29.96,West,270,0.0,0.0,36,0.00,,,0.00,WUHU21623XXSP,2013-07-16 07:21:00,
2013-07-16 00:26:00,64.6,36.8,29.96,West,270,0.0,0.0,36,0.00,,,0.00,WUHU21623XXSP,2013-07-16 07:26:00,
2013-07-16 00:31:00,64.2,36.5,29.96,West,270,0.0,0.9,36,0.00,,,0.00,WUHU21623XXSP,2013-07-16 07:31:00,
2013-07-16 00:36:00,64.0,36.4,29.95,West,270,0.0,0.9,36,0.00,,,0.00,WUHU21623XXSP,2013-07-16 07:36:00,
2013-07-16 00:42:00,64.0,36.4,29.95,West,270,0.0,0.0,36,0.00,,,0.00,WUHU21623XXSP,2013-07-16 07:42:00,
2013-07-16 00:47:00,63.7,36.8,29.95,West,270,0.0,0.0,37,0.00,,,0.00,WUHU21623XXSP,2013-07-16 07:47:00,
2013-07-16 00:52:00,63.7,36.8,29.96,West,270,0.0,1.8,37,0.00,,,0.00,WUHU21623XXSP,2013-07-16 07:52:00,
2013-07-16 00:57:00,63.5,36.6,29.96,West,270,0.0,0.0,37,0.00,,,0.00,WUHU21623XXSP,2013-07-16 07:57:00,
2013-07-16 01:03:00,63.3,36.4,29.95,West,270,0.0,0.0,37,0.00,,,0.00,WUHU21623XXSP,2013-07-16 08:03:00,
2013-07-16 01:08:00,63.1,36.3,29.95,West,270,0.0,0.0,37,0.00,,,0.00,WUHU21623XXSP,2013-07-16 08:08:00,
2013-07-16 01:13:00,63.0,36.8,29.95,West,270,0.0,0.0,38,0.00,,,0.00,WUHU21623XXSP,2013-07-16 08:13:00,
2013-07-16 01:18:00,62.8,36.7,29.95,WSW,247,0.0,0.0,38,0.00,,,0.00,WUHU21623XXSP,2013-07-16 08:18:00,
2013-07-16 01:23:00,62.8,36.7,29.95,West,270,0.0,0.0,38,0.00,,,0.00,WUHU21623XXSP,2013-07-16 08:23:00,
2013-07-16 01:29:00,62.4,36.3,29.95,SW,225,1.1,1.1,38,0.00,,,0.00,WUHU21623XXSP,2013-07-16 08:29:00,
2013-07-16 01:34:00,62.4,36.3,29.95,SW,225,0.0,1.1,38,0.00,,,0.00,WUHU21623XXSP,2013-07-16 08:34:00,
2013-07-16 01:39:00,62.4,36.3,29.95,WSW,247,0.0,0.0,38,0.00,,,0.00,WUHU21623XXSP,2013-07-16 08:39:00,
2013-07-16 01:44:00,62.2,36.2,29.95,WSW,247,0.0,0.0,38,0.00,,,0.00,WUHU21623XXSP,2013-07-16 08:44:00,
2013-07-16 01:50:00,62.1,36.7,29.95,WSW,247,0.0,0.0,39,0.00,,,0.00,WUHU21623XXSP,2013-07-16 08:50:00,
2013-07-16 01:55:00,62.1,36.7,29.95,West,270,0.0,0.0,39,0.00,,,0.00,WUHU21623XXSP,2013-07-16 08:55:00,
2013-07-16 02:00:00,62.1,36.7,29.95,SW,225,0.0,1.3,39,0.00,,,0.00,WUHU21623XXSP,2013-07-16 09:00:00,
2013-07-16 02:05:00,62.1,36.7,29.95,SW,225,0.0,1.3,39,0.00,,,0.00,WUHU21623XXSP,2013-07-16 09:05:00,
2013-07-16 02:11:00,62.1,36.7,29.95,SW,225,0.0,0.0,39,0.00,,,0.00,WUHU21623XXSP,2013-07-16 09:11:00,
2013-07-16 02:16:00,61.9,36.6,29.95,WSW,247,0.0,2.9,39,0.00,,,0.00,WUHU21623XXSP,2013-07-16 09:16:00,
2013-07-16 02:21:00,61.9,36.6,29.95,West,270,0.0,2.9,39,0.00,,,0.00,WUHU21623XXSP,2013-07-16 09:21:00,
2013-07-16 02:26:00,61.9,36.6,29.95,WSW,247,0.0,1.6,39,0.00,,,0.00,WUHU21623XXSP,2013-07-16 09:26:00,
2013-07-16 02:31:00,62.2,36.9,29.95,West,270,0.7,0.7,39,0.00,,,0.00,WUHU21623XXSP,2013-07-16 09:31:00,
2013-07-16 02:37:00,62.4,37.1,29.95,West,270,0.0,0.7,39,0.00,,,0.00,WUHU21623XXSP,2013-07-16 09:37:00,
2013-07-16 02:42:00,62.4,37.1,29.94,West,270,4.5,4.5,39,0.00,,,0.00,WUHU21623XXSP,2013-07-16 09:42:00,
2013-07-16 02:47:00,62.4,37.1,29.94,SW,225,0.0,4.5,39,0.00,,,0.00,WUHU21623XXSP,2013-07-16 09:47:00,
2013-07-16 02:52:00,62.4,37.1,29.94,WNW,292,0.0,0.0,39,0.00,,,0.00,WUHU21623XXSP,2013-07-16 09:52:00,
2013-07-16 02:58:00,62.4,37.1,29.94,West,270,0.0,2.0,39,0.00,,,0.00,WUHU21623XXSP,2013-07-16 09:58:00,
2013-07-16 03:03:00,62.4,37.1,29.94,SW,225,0.0,2.0,39,0.00,,,0.00,WUHU21623XXSP,2013-07-16 10:03:00,
2013-07-16 03:08:00,62.4,36.3,29.94,West,270,0.0,1.1,38,0.00,,,0.00,WUHU21623XXSP,2013-07-16 10:08:00,
2013-07-16 03:13:00,62.4,36.3,29.94,WNW,292,0.0,1.1,38,0.00,,,0.00,WUHU21623XXSP,2013-07-16 10:13:00,
2013-07-16 03:19:00,62.4,37.1,29.93,WNW,292,0.0,0.0,39,0.00,,,0.00,WUHU21623XXSP,2013-07-16 10:19:00,
2013-07-16 03:24:00,62.4,36.3,29.93,West,270,0.9,0.9,38,0.00,,,0.00,WUHU21623XXSP,2013-07-16 10:24:00,
2013-07-16 03:29:00,62.2,36.2,29.94,West,270,0.7,0.9,38,0.00,,,0.00,WUHU21623XXSP,2013-07-16 10:29:00,
2013-07-16 03:34:00,62.1,36.0,29.93,WNW,292,0.0,0.7,38,0.00,,,0.00,WUHU21623XXSP,2013-07-16 10:34:00,
2013-07-16 03:40:00,61.9,35.9,29.93,SW,225,0.0,0.9,38,0.00,,,0.00,WUHU21623XXSP,2013-07-16 10:40:00,
2013-07-16 03:45:00,61.7,36.4,29.93,SW,225,0.0,0.9,39,0.00,,,0.00,WUHU21623XXSP,2013-07-16 10:45:00,
2013-07-16 03:50:00,61.3,36.1,29.93,West,270,0.9,0.9,39,0.00,,,0.00,WUHU21623XXSP,2013-07-16 10:50:00,
2013-07-16 03:55:00,61.3,36.1,29.93,WNW,292,0.0,0.9,39,0.00,,,0.00,WUHU21623XXSP,2013-07-16 10:55:00,
2013-07-16 04:00:00,61.2,35.9,29.93,WNW,292,0.0,0.0,39,0.00,,,0.00,WUHU21623XXSP,2013-07-16 11:00:00,
2013-07-16 04:06:00,61.2,35.9,29.94,WNW,292,0.0,0.0,39,0.00,,,0.00,WUHU21623XXSP,2013-07-16 11:06:00,
2013-07-16 04:11:00,61.0,35.8,29.93,West,270,0.7,2.0,39,0.00,,,0.00,WUHU21623XXSP,2013-07-16 11:11:00,
2013-07-16 04:16:00,61.0,35.8,29.93,NW,315,0.0,2.0,39,0.00,,,0.00,WUHU21623XXSP,2013-07-16 11:16:00,
2013-07-16 04:21:00,61.0,35.8,29.94,West,270,2.0,2.0,39,0.00,,,0.00,WUHU21623XXSP,2013-07-16 11:21:00,
2013-07-16 04:27:00,60.8,34.9,29.94,West,270,0.0,2.0,38,0.00,,,0.00,WUHU21623XXSP,2013-07-16 11:27:00,
2013-07-16 04:32:00,60.8,34.9,29.93,WNW,292,0.0,0.0,38,0.00,,,0.00,WUHU21623XXSP,2013-07-16 11:32:00,
2013-07-16 04:37:00,60.6,34.7,29.93,WNW,292,0.0,0.0,38,0.00,,,0.00,WUHU21623XXSP,2013-07-16 11:37:00,
2013-07-16 04:43:00,60.4,34.6,29.93,West,270,0.0,0.0,38,0.00,,,0.00,WUHU21623XXSP,2013-07-16 11:43:00,
2013-07-16 04:48:00,60.4,34.6,29.94,WSW,247,0.0,0.0,38,0.00,,,0.00,WUHU21623XXSP,2013-07-16 11:48:00,
2013-07-16 04:53:00,60.4,34.6,29.93,WSW,247,0.0,0.0,38,0.00,,,0.00,WUHU21623XXSP,2013-07-16 11:53:00,
2013-07-16 04:58:00,60.4,34.6,29.94,WSW,247,0.0,0.0,38,0.00,,,0.00,WUHU21623XXSP,2013-07-16 11:58:00,
2013-07-16 05:04:00,60.3,34.4,29.93,NNE,22,0.0,0.0,38,0.00,,,0.00,WUHU21623XXSP,2013-07-16 12:04:00,
2013-07-16 05:09:00,60.3,34.4,29.94,WSW,247,0.0,1.6,38,0.00,,,0.00,WUHU21623XXSP,2013-07-16 12:09:00,
2013-07-16 05:14:00,60.1,34.2,29.93,WSW,247,0.0,1.6,38,0.00,,,0.00,WUHU21623XXSP,2013-07-16 12:14:00,
2013-07-16 05:19:00,60.1,34.2,29.93,WNW,292,0.0,0.0,38,0.00,,,0.00,WUHU21623XXSP,2013-07-16 12:19:00,
2013-07-16 05:25:00,60.1,34.2,29.93,WSW,247,0.0,0.0,38,0.00,,,0.00,WUHU21623XXSP,2013-07-16 12:25:00,
2013-07-16 05:30:00,60.1,34.2,29.93,WSW,247,0.0,0.0,38,0.00,,,0.00,WUHU21623XXSP,2013-07-16 12:30:00,
2013-07-16 05:36:00,60.1,34.2,29.93,West,270,0.0,0.0,38,0.00,,,0.00,WUHU21623XXSP,2013-07-16 12:36:00,
2013-07-16 05:41:00,60.1,34.2,29.93,West,270,0.9,0.9,38,0.00,,,0.00,WUHU21623XXSP,2013-07-16 12:41:00,
2013-07-16 05:46:00,60.1,33.5,29.93,West,270,0.0,0.9,37,0.00,,,0.00,WUHU21623XXSP,2013-07-16 12:46:00,
2013-07-16 05:52:00,60.1,34.2,29.93,West,270,0.0,0.0,38,0.00,,,0.00,WUHU21623XXSP,2013-07-16 12:52:00,
2013-07-16 05:57:00,59.9,34.1,29.93,WSW,247,1.8,1.8,38,0.00,,,0.00,WUHU21623XXSP,2013-07-16 12:57:00,
2013-07-16 06:02:00,59.9,33.4,29.93,WSW,247,0.0,1.8,37,0.00,,,0.00,WUHU21623XXSP,2013-07-16 13:02:00,
2013-07-16 06:07:00,59.7,33.9,29.93,WSW,247,1.3,1.3,38,0.00,,,0.00,WUHU21623XXSP,2013-07-16 13:07:00,
2013-07-16 06:12:00,59.7,33.9,29.93,West,270,0.0,1.3,38,0.00,,,0.00,WUHU21623XXSP,2013-07-16 13:12:00,
2013-07-16 06:18:00,59.7,33.9,29.93,West,270,1.3,1.3,38,0.00,,,0.00,WUHU21623XXSP,2013-07-16 13:18:00,
2013-07-16 06:23:00,59.5,33.8,29.93,West,270,0.0,1.3,38,0.00,,,0.00,WUHU21623XXSP,2013-07-16 13:23:00,
2013-07-16 06:28:00,59.5,33.8,29.93,West,270,2.2,2.2,38,0.00,,,0.00,WUHU21623XXSP,2013-07-16 13:28:00,
2013-07-16 06:34:00,59.7,33.9,29.93,SSW,202,0.7,2.2,38,0.00,,,0.00,WUHU21623XXSP,2013-07-16 13:34:00,
2013-07-16 06:39:00,59.9,34.1,29.94,SW,225,0.0,0.7,38,0.00,,,0.00,WUHU21623XXSP,2013-07-16 13:39:00,
2013-07-16 06:45:00,60.1,34.2,29.94,West,270,0.0,0.0,38,0.00,,,0.00,WUHU21623XXSP,2013-07-16 13:45:00,
2013-07-16 06:50:00,60.4,35.3,29.94,West,270,0.0,0.0,39,0.00,,,0.00,WUHU21623XXSP,2013-07-16 13:50:00,
2013-07-16 06:55:00,60.4,35.3,29.93,NW,315,0.0,0.0,39,0.00,,,0.00,WUHU21623XXSP,2013-07-16 13:55:00,
2013-07-16 07:00:00,60.6,35.4,29.93,North,0,4.3,4.3,39,0.00,,,0.00,WUHU21623XXSP,2013-07-16 14:00:00,
2013-07-16 07:06:00,61.0,35.8,29.93,NNE,22,1.3,4.3,39,0.00,,,0.00,WUHU21623XXSP,2013-07-16 14:06:00,
2013-07-16 07:11:00,61.3,36.1,29.93,North,0,0.0,1.3,39,0.00,,,0.00,WUHU21623XXSP,2013-07-16 14:11:00,
2013-07-16 07:16:00,61.5,36.2,29.93,NE,45,0.0,1.3,39,0.00,,,0.00,WUHU21623XXSP,2013-07-16 14:16:00,
2013-07-16 07:21:00,61.5,36.2,29.94,WSW,247,0.0,2.7,39,0.00,,,0.00,WUHU21623XXSP,2013-07-16 14:21:00,
2013-07-16 07:27:00,61.5,36.2,29.93,West,270,0.0,2.7,39,0.00,,,0.00,WUHU21623XXSP,2013-07-16 14:27:00,
2013-07-16 07:33:00,61.5,36.2,29.94,North,0,4.9,4.9,39,0.00,,,0.00,WUHU21623XXSP,2013-07-16 14:33:00,
2013-07-16 07:38:00,61.7,36.4,29.94,North,0,0.7,4.9,39,0.00,,,0.00,WUHU21623XXSP,2013-07-16 14:38:00,
2013-07-16 07:43:00,62.2,37.6,29.94,North,0,0.0,1.3,40,0.00,,,0.00,WUHU21623XXSP,2013-07-16 14:43:00,
2013-07-16 07:48:00,63.0,38.3,29.93,North,0,0.9,3.8,40,0.00,,,0.00,WUHU21623XXSP,2013-07-16 14:48:00,
2013-07-16 07:54:00,64.2,38.7,29.94,NNW,337,3.1,3.8,39,0.00,,,0.00,WUHU21623XXSP,2013-07-16 14:54:00,
2013-07-16 07:59:00,65.1,39.5,29.95,West,270,0.0,3.1,39,0.00,,,0.00,WUHU21623XXSP,2013-07-16 14:59:00,
2013-07-16 08:04:00,66.2,39.7,29.95,WSW,247,7.4,7.4,38,0.00,,,0.00,WUHU21623XXSP,2013-07-16 15:04:00,
2013-07-16 08:09:00,67.6,40.3,29.95,ESE,112,1.8,7.4,37,0.00,,,0.00,WUHU21623XXSP,2013-07-16 15:09:00,
2013-07-16 08:14:00,68.5,41.1,29.95,NW,315,1.8,2.0,37,0.00,,,0.00,WUHU21623XXSP,2013-07-16 15:14:00,
2013-07-16 08:20:00,69.6,41.3,29.95,North,0,0.0,3.8,36,0.00,,,0.00,WUHU21623XXSP,2013-07-16 15:20:00,
2013-07-16 08:25:00,70.3,42.0,29.95,North,0,2.2,4.9,36,0.00,,,0.00,WUHU21623XXSP,2013-07-16 15:25:00,
2013-07-16 08:30:00,71.8,42.5,29.95,NE,45,2.2,4.9,35,0.00,,,0.00,WUHU21623XXSP,2013-07-16 15:30:00,
2013-07-16 08:35:00,72.3,42.2,29.94,NE,45,2.5,3.6,34,0.00,,,0.00,WUHU21623XXSP,2013-07-16 15:35:00,
2013-07-16 08:41:00,72.3,42.2,29.95,ENE,67,4.3,8.3,34,0.00,,,0.00,WUHU21623XXSP,2013-07-16 15:41:00,
2013-07-16 08:46:00,72.7,41.8,29.95,NE,45,3.8,8.3,33,0.00,,,0.00,WUHU21623XXSP,2013-07-16 15:46:00,
2013-07-16 08:52:00,73.0,42.8,29.94,NNE,22,1.6,3.8,34,0.00,,,0.00,WUHU21623XXSP,2013-07-16 15:52:00,
2013-07-16 08:57:00,73.6,43.3,29.94,NE,45,3.8,4.0,34,0.00,,,0.00,WUHU21623XXSP,2013-07-16 15:57:00,
2013-07-16 09:02:00,74.5,42.6,29.94,NE,45,3.8,4.0,32,0.00,,,0.00,WUHU21623XXSP,2013-07-16 16:02:00,
2013-07-16 09:07:00,74.8,42.9,29.94,NE,45,0.0,4.5,32,0.00,,,0.00,WUHU21623XXSP,2013-07-16 16:07:00,
2013-07-16 09:13:00,75.6,43.6,29.94,NNE,22,0.0,4.5,32,0.00,,,0.00,WUHU21623XXSP,2013-07-16 16:13:00,
2013-07-16 09:18:00,76.3,44.2,29.94,NNW,337,0.0,2.0,32,0.00,,,0.00,WUHU21623XXSP,2013-07-16 16:18:00,
2013-07-16 09:23:00,77.0,44.1,29.94,ENE,67,2.2,4.0,31,0.00,,,0.00,WUHU21623XXSP,2013-07-16 16:23:00,
2013-07-16 09:28:00,76.8,43.9,29.94,NE,45,4.7,4.7,31,0.00,,,0.00,WUHU21623XXSP,2013-07-16 16:28:00,
2013-07-16 09:34:00,76.5,43.6,29.94,NE,45,4.5,5.1,31,0.00,,,0.00,WUHU21623XXSP,2013-07-16 16:34:00,
2013-07-16 09:39:00,76.8,43.9,29.94,NE,45,3.6,5.1,31,0.00,,,0.00,WUHU21623XXSP,2013-07-16 16:39:00,
2013-07-16 09:44:00,77.2,45.0,29.94,East,90,4.3,4.3,32,0.00,,,0.00,WUHU21623XXSP,2013-07-16 16:44:00,
2013-07-16 09:49:00,77.5,44.5,29.93,ESE,112,0.0,4.3,31,0.00,,,0.00,WUHU21623XXSP,2013-07-16 16:49:00,
2013-07-16 09:55:00,77.9,45.6,29.93,NNE,22,6.7,7.2,32,0.00,,,0.00,WUHU21623XXSP,2013-07-16 16:55:00,
2013-07-16 10:00:00,78.6,46.2,29.93,NNW,337,2.5,7.2,32,0.00,,,0.00,WUHU21623XXSP,2013-07-16 17:00:00,
2013-07-16 10:05:00,79.0,45.7,29.93,NE,45,0.0,3.6,31,0.00,,,0.00,WUHU21623XXSP,2013-07-16 17:05:00,
2013-07-16 10:10:00,79.5,46.2,29.93,NNE,22,1.1,3.6,31,0.00,,,0.00,WUHU21623XXSP,2013-07-16 17:10:00,
2013-07-16 10:16:00,80.1,45.9,29.93,NE,45,4.0,5.8,30,0.00,,,0.00,WUHU21623XXSP,2013-07-16 17:16:00,
2013-07-16 10:21:00,79.9,45.8,29.94,North,0,0.0,4.7,30,0.00,,,0.00,WUHU21623XXSP,2013-07-16 17:21:00,
2013-07-16 10:26:00,79.5,45.4,29.93,NE,45,6.5,7.4,30,0.00,,,0.00,WUHU21623XXSP,2013-07-16 17:26:00,
2013-07-16 10:31:00,79.5,45.4,29.93,North,0,0.0,6.5,30,0.00,,,0.00,WUHU21623XXSP,2013-07-16 17:31:00,
2013-07-16 10:36:00,80.4,45.2,29.92,NNW,337,6.0,8.9,29,0.00,,,0.00,WUHU21623XXSP,2013-07-16 17:36:00,
2013-07-16 10:42:00,80.4,46.2,29.93,NE,45,6.5,8.9,30,0.00,,,0.00,WUHU21623XXSP,2013-07-16 17:42:00,
2013-07-16 10:48:00,80.4,46.2,29.92,North,0,3.6,8.1,30,0.00,,,0.00,WUHU21623XXSP,2013-07-16 17:48:00,
2013-07-16 10:53:00,81.0,46.7,29.92,North,0,3.4,3.8,30,0.00,,,0.00,WUHU21623XXSP,2013-07-16 17:53:00,
2013-07-16 10:58:00,81.5,47.1,29.92,NNE,22,0.9,7.2,30,0.00,,,0.00,WUHU21623XXSP,2013-07-16 17:58:00,
2013-07-16 11:03:00,82.0,46.5,29.91,NE,45,3.1,7.2,29,0.00,,,0.00,WUHU21623XXSP,2013-07-16 18:03:00,
2013-07-16 11:09:00,81.3,45.9,29.91,NNW,337,6.3,6.3,29,0.00,,,0.00,WUHU21623XXSP,2013-07-16 18:09:00,
2013-07-16 11:14:00,81.1,45.8,29.91,NE,45,6.5,6.5,29,0.00,,,0.00,WUHU21623XXSP,2013-07-16 18:14:00,
2013-07-16 11:19:00,81.3,47.0,29.91,North,0,0.0,6.5,30,0.00,,,0.00,WUHU21623XXSP,2013-07-16 18:19:00,
2013-07-16 11:24:00,81.7,46.2,29.92,NE,45,4.3,4.3,29,0.00,,,0.00,WUHU21623XXSP,2013-07-16 18:24:00,
2013-07-16 11:29:00,81.5,47.1,29.92,NNE,22,1.8,4.3,30,0.00,,,0.00,WUHU21623XXSP,2013-07-16 18:29:00,
2013-07-16 11:35:00,81.0,45.6,29.93,ENE,67,0.9,6.5,29,0.00,,,0.00,WUHU21623XXSP,2013-07-16 18:35:00,
2013-07-16 11:40:00,80.6,46.4,29.93,ENE,67,0.0,0.9,30,0.00,,,0.00,WUHU21623XXSP,2013-07-16 18:40:00,
2013-07-16 11:45:00,80.4,46.2,29.94,ENE,67,0.0,7.4,30,0.00,,,0.00,WUHU21623XXSP,2013-07-16 18:45:00,
2013-07-16 11:50:00,79.9,45.8,29.94,ENE,67,0.0,7.4,30,0.00,,,0.00,WUHU21623XXSP,2013-07-16 18:50:00,
2013-07-16 11:56:00,79.5,46.2,29.92,NNW,337,5.4,5.4,31,0.00,,,0.00,WUHU21623XXSP,2013-07-16 18:56:00,
2013-07-16 12:01:00,79.2,45.9,29.92,NNW,337,0.0,5.4,31,0.00,,,0.00,WUHU21623XXSP,2013-07-16 19:01:00,
2013-07-16 12:06:00,78.6,45.4,29.92,NE,45,2.2,3.4,31,0.00,,,0.00,WUHU21623XXSP,2013-07-16 19:06:00,
2013-07-16 12:11:00,77.9,44.8,29.92,North,0,0.0,2.2,31,0.00,,,0.00,WUHU21623XXSP,2013-07-16 19:11:00,
2013-07-16 12:17:00,77.7,44.7,29.91,NE,45,2.2,3.6,31,0.00,,,0.00,WUHU21623XXSP,2013-07-16 19:17:00,
2013-07-16 12:22:00,76.8,43.9,29.91,NNE,22,7.2,7.2,31,0.00,,,0.00,WUHU21623XXSP,2013-07-16 19:22:00,
2013-07-16 12:27:00,76.1,43.3,29.89,NE,45,3.6,7.2,31,0.00,,,0.00,WUHU21623XXSP,2013-07-16 19:27:00,
2013-07-16 12:32:00,75.4,43.4,29.91,NE,45,4.0,7.4,32,0.00,,,0.00,WUHU21623XXSP,2013-07-16 19:32:00,
2013-07-16 12:38:00,75.0,43.1,29.91,NNW,337,4.3,7.4,32,0.00,,,0.00,WUHU21623XXSP,2013-07-16 19:38:00,
2013-07-16 12:43:00,75.0,43.1,29.92,NE,45,2.9,5.8,32,0.00,,,0.00,WUHU21623XXSP,2013-07-16 19:43:00,
2013-07-16 12:48:00,75.2,43.2,29.92,NE,45,4.7,5.8,32,0.00,,,0.00,WUHU21623XXSP,2013-07-16 19:48:00,
2013-07-16 12:53:00,75.9,44.6,29.92,NNW,337,2.9,6.9,33,0.00,,,0.00,WUHU21623XXSP,2013-07-16 19:53:00,
2013-07-16 12:58:00,76.8,45.4,29.93,NNE,22,4.9,6.9,33,0.00,,,0.00,WUHU21623XXSP,2013-07-16 19:58:00,
2013-07-16 13:04:00,77.5,45.3,29.93,ENE,67,0.0,4.9,32,0.00,,,0.00,WUHU21623XXSP,2013-07-16 20:04:00,
2013-07-16 13:09:00,77.9,45.6,29.93,NE,45,3.1,3.6,32,0.00,,,0.00,WUHU21623XXSP,2013-07-16 20:09:00,
2013-07-16 13:14:00,78.1,45.7,29.93,NNE,22,4.3,4.3,32,0.00,,,0.00,WUHU21623XXSP,2013-07-16 20:14:00,
2013-07-16 13:19:00,78.6,46.2,29.93,North,0,1.8,4.3,32,0.00,,,0.00,WUHU21623XXSP,2013-07-16 20:19:00,
2013-07-16 13:25:00,79.0,45.7,29.93,NE,45,3.6,5.1,31,0.00,,,0.00,WUHU21623XXSP,2013-07-16 20:25:00,
2013-07-16 13:30:00,78.6,45.4,29.92,North,0,3.4,6.3,31,0.00,,,0.00,WUHU21623XXSP,2013-07-16 20:30:00,
2013-07-16 13:35:00,78.4,45.2,29.92,NE,45,1.6,6.3,31,0.00,,,0.00,WUHU21623XXSP,2013-07-16 20:35:00,
2013-07-16 13:40:00,78.6,45.4,29.92,East,90,0.0,3.6,31,0.00,,,0.00,WUHU21623XXSP,2013-07-16 20:40:00,
2013-07-16 13:46:00,78.6,45.4,29.92,NNE,22,1.1,3.6,31,0.00,,,0.00,WUHU21623XXSP,2013-07-16 20:46:00,
2013-07-16 13:51:00,78.8,45.6,29.92,NE,45,0.0,2.9,31,0.00,,,0.00,WUHU21623XXSP,2013-07-16 20:51:00,
2013-07-16 13:56:00,79.3,46.8,29.92,West,270,3.6,3.6,32,0.00,,,0.00,WUHU21623XXSP,2013-07-16 20:56:00,
2013-07-16 14:01:00,79.5,46.2,29.92,North,0,0.7,3.6,31,0.00,,,0.00,WUHU21623XXSP,2013-07-16 21:01:00,
2013-07-16 14:07:00,79.9,46.5,29.92,NE,45,1.1,1.3,31,0.00,,,0.00,WUHU21623XXSP,2013-07-16 21:07:00,
2013-07-16 14:12:00,79.7,46.4,29.92,NNE,22,3.4,3.4,31,0.00,,,0.00,WUHU21623XXSP,2013-07-16 21:12:00,
2013-07-16 14:17:00,79.5,46.2,29.91,NNE,22,0.0,3.4,31,0.00,,,0.00,WUHU21623XXSP,2013-07-16 21:17:00,
2013-07-16 14:22:00,79.7,46.4,29.91,NE,45,3.6,7.4,31,0.00,,,0.00,WUHU21623XXSP,2013-07-16 21:22:00,
2013-07-16 14:27:00,79.9,46.5,29.91,NNE,22,0.0,7.4,31,0.00,,,0.00,WUHU21623XXSP,2013-07-16 21:27:00,
2013-07-16 14:33:00,80.2,46.1,29.91,WSW,247,0.0,6.3,30,0.00,,,0.00,WUHU21623XXSP,2013-07-16 21:33:00,
2013-07-16 14:38:00,80.4,47.0,29.91,NNE,22,2.9,8.3,31,0.00,,,0.00,WUHU21623XXSP,2013-07-16 21:38:00,
2013-07-16 14:43:00,80.8,47.3,29.91,North,0,2.5,8.3,31,0.00,,,0.00,WUHU21623XXSP,2013-07-16 21:43:00,
2013-07-16 14:48:00,81.1,46.8,29.91,NE,45,3.4,3.8,30,0.00,,,0.00,WUHU21623XXSP,2013-07-16 21:48:00,
2013-07-16 14:54:00,81.5,47.1,29.91,NNE,22,5.6,5.6,30,0.00,,,0.00,WUHU21623XXSP,2013-07-16 21:54:00,
2013-07-16 14:59:00,81.7,47.3,29.91,NE,45,0.0,5.6,30,0.00,,,0.00,WUHU21623XXSP,2013-07-16 21:59:00,
2013-07-16 15:04:00,82.0,46.5,29.91,ENE,67,0.0,3.8,29,0.00,,,0.00,WUHU21623XXSP,2013-07-16 22:04:00,
2013-07-16 15:09:00,82.2,46.7,29.91,NNE,22,5.4,5.4,29,0.00,,,0.00,WUHU21623XXSP,2013-07-16 22:09:00,
2013-07-16 15:15:00,82.2,46.7,29.91,NE,45,4.7,5.4,29,0.00,,,0.00,WUHU21623XXSP,2013-07-16 22:15:00,
2013-07-16 15:20:00,82.2,46.7,29.91,NE,45,0.0,4.7,29,0.00,,,0.00,WUHU21623XXSP,2013-07-16 22:20:00,
2013-07-16 15:25:00,82.2,46.7,29.91,WSW,247,0.0,0.0,29,0.00,,,0.00,WUHU21623XXSP,2013-07-16 22:25:00,
2013-07-16 15:30:00,82.2,46.7,29.91,NNE,22,0.0,4.3,29,0.00,,,0.00,WUHU21623XXSP,2013-07-16 22:30:00,
2013-07-16 15:35:00,82.2,46.7,29.91,ENE,67,2.9,7.4,29,0.00,,,0.00,WUHU21623XXSP,2013-07-16 22:35:00,
2013-07-16 15:41:00,81.7,46.2,29.91,ENE,67,0.0,8.7,29,0.00,,,0.00,WUHU21623XXSP,2013-07-16 22:41:00,
2013-07-16 15:46:00,81.5,46.1,29.91,North,0,1.3,8.7,29,0.00,,,0.00,WUHU21623XXSP,2013-07-16 22:46:00,
2013-07-16 15:51:00,81.7,46.2,29.90,NNW,337,1.3,4.7,29,0.00,,,0.00,WUHU21623XXSP,2013-07-16 22:51:00,
2013-07-16 15:56:00,82.0,46.5,29.90,WSW,247,4.0,7.6,29,0.00,,,0.00,WUHU21623XXSP,2013-07-16 22:56:00,
2013-07-16 16:02:00,82.0,46.5,29.90,ENE,67,2.9,7.6,29,0.00,,,0.00,WUHU21623XXSP,2013-07-16 23:02:00,
2013-07-16 16:07:00,82.0,47.6,29.90,WSW,247,0.0,4.5,30,0.00,,,0.00,WUHU21623XXSP,2013-07-16 23:07:00,
2013-07-16 16:12:00,82.2,46.7,29.89,WSW,247,0.4,0.4,29,0.00,,,0.00,WUHU21623XXSP,2013-07-16 23:12:00,
2013-07-16 16:17:00,82.6,45.9,29.90,WSW,247,5.4,5.4,28,0.00,,,0.00,WUHU21623XXSP,2013-07-16 23:17:00,
2013-07-16 16:23:00,82.4,46.8,29.90,West,270,3.1,5.4,29,0.00,,,0.00,WUHU21623XXSP,2013-07-16 23:23:00,
2013-07-16 16:28:00,82.6,46.9,29.90,WSW,247,0.0,3.1,29,0.00,,,0.00,WUHU21623XXSP,2013-07-16 23:28:00,
2013-07-16 16:33:00,82.8,47.1,29.89,WSW,247,3.4,3.4,29,0.00,,,0.00,WUHU21623XXSP,2013-07-16 23:33:00,
2013-07-16 16:38:00,82.9,47.3,29.89,WSW,247,0.0,3.4,29,0.00,,,0.00,WUHU21623XXSP,2013-07-16 23:38:00,
2013-07-16 16:44:00,82.9,46.2,29.89,WSW,247,3.1,3.1,28,0.00,,,0.00,WUHU21623XXSP,2013-07-16 23:44:00,
2013-07-16 16:49:00,82.9,47.3,29.89,WSW,247,2.7,3.1,29,0.00,,,0.00,WUHU21623XXSP,2013-07-16 23:49:00,
2013-07-16 16:54:00,82.8,46.1,29.89,WSW,247,2.5,2.7,28,0.00,,,0.00,WUHU21623XXSP,2013-07-16 23:54:00,
2013-07-16 16:59:00,82.6,45.9,29.89,WSW,247,4.0,4.0,28,0.00,,,0.00,WUHU21623XXSP,2013-07-16 23:59:00,
2013-07-16 17:04:00,82.2,46.7,29.89,WSW,247,3.6,4.7,29,0.00,,,0.00,WUHU21623XXSP,2013-07-17 00:04:00,
2013-07-16 17:10:00,82.2,46.7,29.88,NE,45,1.6,4.7,29,0.00,,,0.00,WUHU21623XXSP,2013-07-17 00:10:00,
2013-07-16 17:15:00,82.2,46.7,29.88,NNW,337,5.8,5.8,29,0.00,,,0.00,WUHU21623XXSP,2013-07-17 00:15:00,
2013-07-16 17:20:00,82.2,46.7,29.88,NE,45,6.3,7.8,29,0.00,,,0.00,WUHU21623XXSP,2013-07-17 00:20:00,
2013-07-16 17:25:00,82.0,46.5,29.88,NNW,337,3.4,7.8,29,0.00,,,0.00,WUHU21623XXSP,2013-07-17 00:25:00,
2013-07-16 17:31:00,82.0,46.5,29.88,NNE,22,6.3,6.3,29,0.00,,,0.00,WUHU21623XXSP,2013-07-17 00:31:00,
2013-07-16 17:36:00,82.0,46.5,29.88,NNE,22,3.1,6.3,29,0.00,,,0.00,WUHU21623XXSP,2013-07-17 00:36:00,
2013-07-16 17:41:00,82.0,46.5,29.88,North,0,8.9,8.9,29,0.00,,,0.00,WUHU21623XXSP,2013-07-17 00:41:00,
2013-07-16 17:46:00,82.0,46.5,29.88,NE,45,6.3,8.9,29,0.00,,,0.00,WUHU21623XXSP,2013-07-17 00:46:00,
2013-07-16 17:52:00,82.0,46.5,29.88,NNE,22,2.5,8.1,29,0.00,,,0.00,WUHU21623XXSP,2013-07-17 00:52:00,
2013-07-16 17:57:00,82.0,46.5,29.88,NE,45,2.5,2.5,29,0.00,,,0.00,WUHU21623XXSP,2013-07-17 00:57:00,
2013-07-16 18:02:00,82.0,46.5,29.88,NNE,22,7.6,8.3,29,0.00,,,0.00,WUHU21623XXSP,2013-07-17 01:02:00,
2013-07-16 18:07:00,81.7,46.2,29.88,NE,45,2.7,8.3,29,0.00,,,0.00,WUHU21623XXSP,2013-07-17 01:07:00,
2013-07-16 18:13:00,81.7,47.3,29.87,NE,45,5.1,6.5,30,0.00,,,0.00,WUHU21623XXSP,2013-07-17 01:13:00,
2013-07-16 18:18:00,81.7,47.3,29.87,North,0,1.1,6.3,30,0.00,,,0.00,WUHU21623XXSP,2013-07-17 01:18:00,
2013-07-16 18:23:00,81.7,47.3,29.88,NW,315,1.1,6.5,30,0.00,,,0.00,WUHU21623XXSP,2013-07-17 01:23:00,
2013-07-16 18:28:00,81.7,47.3,29.88,WSW,247,0.4,9.8,30,0.00,,,0.00,WUHU21623XXSP,2013-07-17 01:28:00,
2013-07-16 18:33:00,81.7,48.0,29.88,NW,315,3.4,9.8,31,0.00,,,0.00,WUHU21623XXSP,2013-07-17 01:33:00,
2013-07-16 18:39:00,81.7,48.0,29.88,NNW,337,4.0,4.0,31,0.00,,,0.00,WUHU21623XXSP,2013-07-17 01:39:00,
2013-07-16 18:44:00,81.7,48.0,29.89,WSW,247,0.0,5.4,31,0.00,,,0.00,WUHU21623XXSP,2013-07-17 01:44:00,
2013-07-16 18:49:00,81.5,48.7,29.88,WSW,247,5.8,5.8,32,0.00,,,0.00,WUHU21623XXSP,2013-07-17 01:49:00,
2013-07-16 18:54:00,81.3,48.5,29.89,WSW,247,0.0,5.8,32,0.00,,,0.00,WUHU21623XXSP,2013-07-17 01:54:00,
2013-07-16 19:00:00,81.1,49.9,29.89,WSW,247,4.9,4.9,34,0.00,,,0.00,WUHU21623XXSP,2013-07-17 02:00:00,
2013-07-16 19:05:00,80.8,49.6,29.89,WSW,247,0.0,4.9,34,0.00,,,0.00,WUHU21623XXSP,2013-07-17 02:05:00,
2013-07-16 19:10:00,80.4,50.1,29.90,WSW,247,7.4,7.4,35,0.00,,,0.00,WUHU21623XXSP,2013-07-17 02:10:00,
2013-07-16 19:15:00,80.1,49.8,29.90,NW,315,2.9,7.4,35,0.00,,,0.00,WUHU21623XXSP,2013-07-17 02:15:00,
2013-07-16 19:21:00,79.9,49.6,29.90,WSW,247,5.4,5.4,35,0.00,,,0.00,WUHU21623XXSP,2013-07-17 02:21:00,
2013-07-16 19:26:00,79.3,49.1,29.90,WSW,247,0.7,5.4,35,0.00,,,0.00,WUHU21623XXSP,2013-07-17 02:26:00,
2013-07-16 19:31:00,79.2,49.0,29.90,WSW,247,4.7,4.7,35,0.00,,,0.00,WUHU21623XXSP,2013-07-17 02:31:00,
2013-07-16 19:36:00,78.6,48.5,29.91,NNW,337,0.0,5.1,35,0.00,,,0.00,WUHU21623XXSP,2013-07-17 02:36:00,
2013-07-16 19:42:00,78.4,48.3,29.91,ESE,112,0.7,0.7,35,0.00,,,0.00,WUHU21623XXSP,2013-07-17 02:42:00,
2013-07-16 19:47:00,77.9,47.9,29.91,ENE,67,0.9,1.6,35,0.00,,,0.00,WUHU21623XXSP,2013-07-17 02:47:00,
2013-07-16 19:52:00,77.7,47.7,29.91,WNW,292,0.0,4.5,35,0.00,,,0.00,WUHU21623XXSP,2013-07-17 02:52:00,
2013-07-16 19:57:00,77.4,47.4,29.91,NNW,337,0.0,4.5,35,0.00,,,0.00,WUHU21623XXSP,2013-07-17 02:57:00,
2013-07-16 20:03:00,77.2,47.3,29.91,North,0,0.0,2.7,35,0.00,,,0.00,WUHU21623XXSP,2013-07-17 03:03:00,
2013-07-16 20:08:00,76.6,46.8,29.91,West,270,2.7,2.7,35,0.00,,,0.00,WUHU21623XXSP,2013-07-17 03:08:00,
2013-07-16 20:13:00,76.5,45.9,29.91,West,270,0.0,2.7,34,0.00,,,0.00,WUHU21623XXSP,2013-07-17 03:13:00,
2013-07-16 20:18:00,75.9,45.4,29.92,NE,45,0.4,2.5,34,0.00,,,0.00,WUHU21623XXSP,2013-07-17 03:18:00,
2013-07-16 20:23:00,75.7,46.7,29.92,WNW,292,0.0,1.8,36,0.00,,,0.00,WUHU21623XXSP,2013-07-17 03:23:00,
2013-07-16 20:29:00,75.4,46.4,29.92,NW,315,0.0,3.8,36,0.00,,,0.00,WUHU21623XXSP,2013-07-17 03:29:00,
2013-07-16 20:34:00,75.0,46.1,29.92,NNW,337,0.0,3.8,36,0.00,,,0.00,WUHU21623XXSP,2013-07-17 03:34:00,
2013-07-16 20:39:00,74.7,46.5,29.92,NNW,337,3.4,3.4,37,0.00,,,0.00,WUHU21623XXSP,2013-07-17 03:39:00,
2013-07-16 20:44:00,74.3,46.2,29.93,NNE,22,0.9,3.4,37,0.00,,,0.00,WUHU21623XXSP,2013-07-17 03:44:00,
2013-07-16 20:50:00,73.9,45.9,29.92,North,0,0.0,1.1,37,0.00,,,0.00,WUHU21623XXSP,2013-07-17 03:50:00,
2013-07-16 20:55:00,73.4,45.4,29.93,NW,315,0.0,3.1,37,0.00,,,0.00,WUHU21623XXSP,2013-07-17 03:55:00,
2013-07-16 21:00:00,73.2,46.0,29.93,WNW,292,0.0,3.1,38,0.00,,,0.00,WUHU21623XXSP,2013-07-17 04:00:00,
2013-07-16 21:05:00,72.7,45.5,29.93,NNW,337,0.0,3.1,38,0.00,,,0.00,WUHU21623XXSP,2013-07-17 04:05:00,
2013-07-16 21:11:00,72.3,45.2,29.93,NNW,337,0.0,3.1,38,0.00,,,0.00,WUHU21623XXSP,2013-07-17 04:11:00,
2013-07-16 21:16:00,72.0,44.9,29.94,North,0,0.0,0.9,38,0.00,,,0.00,WUHU21623XXSP,2013-07-17 04:16:00,
2013-07-16 21:21:00,71.4,45.1,29.94,NNW,337,0.0,0.0,39,0.00,,,0.00,WUHU21623XXSP,2013-07-17 04:21:00,
2013-07-16 21:26:00,71.2,45.0,29.94,NNE,22,0.0,0.0,39,0.00,,,0.00,WUHU21623XXSP,2013-07-17 04:26:00,
2013-07-16 21:32:00,70.9,44.7,29.94,NNW,337,0.0,0.0,39,0.00,,,0.00,WUHU21623XXSP,2013-07-17 04:32:00,
2013-07-16 21:37:00,70.7,44.5,29.95,WNW,292,0.0,0.0,39,0.00,,,0.00,WUHU21623XXSP,2013-07-17 04:37:00,
2013-07-16 21:42:00,70.3,44.2,29.95,NNW,337,0.0,0.0,39,0.00,,,0.00,WUHU21623XXSP,2013-07-17 04:42:00,
2013-07-16 21:47:00,70.2,44.7,29.96,North,0,0.0,0.0,40,0.00,,,0.00,WUHU21623XXSP,2013-07-17 04:47:00,
2013-07-16 21:53:00,69.6,44.3,29.96,NNW,337,0.0,2.9,40,0.00,,,0.00,WUHU21623XXSP,2013-07-17 04:53:00,
2013-07-16 21:58:00,69.4,44.1,29.96,NNW,337,0.0,2.9,40,0.00,,,0.00,WUHU21623XXSP,2013-07-17 04:58:00,
2013-07-16 22:03:00,69.3,43.9,29.96,West,270,0.0,0.0,40,0.00,,,0.00,WUHU21623XXSP,2013-07-17 05:03:00,
2013-07-16 22:08:00,68.9,43.6,29.96,West,270,0.0,0.0,40,0.00,,,0.00,WUHU21623XXSP,2013-07-17 05:08:00,
2013-07-16 22:13:00,68.7,43.4,29.96,West,270,0.0,0.0,40,0.00,,,0.00,WUHU21623XXSP,2013-07-17 05:13:00,
2013-07-16 22:19:00,68.4,43.1,29.96,West,270,0.0,0.0,40,0.00,,,0.00,WUHU21623XXSP,2013-07-17 05:19:00,
2013-07-16 22:24:00,68.2,43.6,29.97,West,270,0.0,0.0,41,0.00,,,0.00,WUHU21623XXSP,2013-07-17 05:24:00,
2013-07-16 22:29:00,67.8,43.2,29.97,WNW,292,0.0,0.0,41,0.00,,,0.00,WUHU21623XXSP,2013-07-17 05:29:00,
2013-07-16 22:34:00,67.6,43.1,29.97,WNW,292,0.0,0.0,41,0.00,,,0.00,WUHU21623XXSP,2013-07-17 05:34:00,
2013-07-16 22:40:00,67.3,42.7,29.97,WNW,292,0.0,0.0,41,0.00,,,0.00,WUHU21623XXSP,2013-07-17 05:40:00,
2013-07-16 22:45:00,66.9,41.8,29.97,WNW,292,0.0,0.0,40,0.00,,,0.00,WUHU21623XXSP,2013-07-17 05:45:00,
2013-07-16 22:50:00,66.7,42.3,29.98,WNW,292,0.0,0.0,41,0.00,,,0.00,WUHU21623XXSP,2013-07-17 05:50:00,
2013-07-16 22:55:00,66.0,41.6,29.98,WNW,292,0.0,0.0,41,0.00,,,0.00,WUHU21623XXSP,2013-07-17 05:55:00,
2013-07-16 23:01:00,65.8,41.4,29.98,WNW,292,0.0,0.0,41,0.00,,,0.00,WUHU21623XXSP,2013-07-17 06:01:00,
2013-07-16 23:06:00,65.3,40.9,29.98,WNW,292,0.0,0.0,41,0.00,,,0.00,WUHU21623XXSP,2013-07-17 06:06:00,
2013-07-16 23:11:00,65.1,40.8,29.98,WNW,292,0.0,0.0,41,0.00,,,0.00,WUHU21623XXSP,2013-07-17 06:11:00,
2013-07-16 23:16:00,64.8,41.0,29.98,WNW,292,0.0,0.0,42,0.00,,,0.00,WUHU21623XXSP,2013-07-17 06:16:00,
2013-07-16 23:21:00,64.2,40.5,29.98,WNW,292,0.0,0.0,42,0.00,,,0.00,WUHU21623XXSP,2013-07-17 06:21:00,
2013-07-16 23:27:00,63.7,40.1,29.98,WNW,292,0.0,0.0,42,0.00,,,0.00,WUHU21623XXSP,2013-07-17 06:27:00,
2013-07-16 23:32:00,63.5,39.9,29.98,WNW,292,0.0,0.0,42,0.00,,,0.00,WUHU21623XXSP,2013-07-17 06:32:00,
2013-07-16 23:37:00,63.1,40.2,29.98,WNW,292,0.0,0.0,43,0.00,,,0.00,WUHU21623XXSP,2013-07-17 06:37:00,
2013-07-16 23:42:00,63.1,40.2,29.98,WNW,292,0.0,0.0,43,0.00,,,0.00,WUHU21623XXSP,2013-07-17 06:42:00,
2013-07-16 23:48:00,62.8,39.8,29.98,WNW,292,0.0,0.0,43,0.00,,,0.00,WUHU21623XXSP,2013-07-17 06:48:00,
2013-07-16 23:53:00,62.4,40.1,29.98,WNW,292,0.0,0.0,44,0.00,,,0.00,WUHU21623XXSP,2013-07-17 06:53:00,
2013-07-16 23:58:00,62.4,40.1,29.98,WNW,292,0.0,0.0,44,0.00,,,0.00,WUHU21623XXSP,2013-07-17 06:58:00,